Hourly Weather Otradnaya

Today, 1 August, Sunday

Time Temperature Precipitation Wind Pressure Humidity
00:00 +20°C° 0 mm 2 mps 720 mmHg 68%
01:00 +20°C° 0 mm 2 mps 720 mmHg 70%
02:00 +20°C° 0 mm 2 mps 720 mmHg 71%
03:00 +19°C° 0 mm 2 mps 720 mmHg 72%
04:00 +19°C° 0 mm 2 mps 720 mmHg 73%
05:00 +19°C° 0 mm 2 mps 720 mmHg 73%
06:00 +20°C° 0 mm 2 mps 720 mmHg 73%
07:00 +23°C° 0 mm 1 mps 721 mmHg 66%
08:00 +25°C° 0 mm 1 mps 721 mmHg 60%
09:00 +26°C° 0 mm 0 mps 721 mmHg 53%
10:00 +29°C° 0 mm 1 mps 721 mmHg 49%
11:00 +30°C° 0 mm 2 mps 721 mmHg 45%
12:00 +31°C° 0 mm 2 mps 721 mmHg 41%
13:00 +32°C° 0 mm 2 mps 721 mmHg 40%
14:00 +32°C° 0 mm 2 mps 720 mmHg 39%
15:00 +34°C° 0 mm 2 mps 720 mmHg 38%
16:00 +32°C° 0 mm 2 mps 720 mmHg 43%
17:00 +32°C° 0 mm 1 mps 720 mmHg 48%
18:00 +31°C° 0 mm 1 mps 720 mmHg 52%
19:00 +29°C° 0 mm 1 mps 720 mmHg 55%
20:00 +27°C° 0 mm 2 mps 720 mmHg 59%
21:00 +25°C° 0 mm 2 mps 720 mmHg 62%
22:00 +24°C° 0 mm 2 mps 720 mmHg 65%
23:00 +24°C° 0 mm 2 mps 720 mmHg 68%

Tomorrow, 2 August, Monday

Time Temperature Precipitation Wind Pressure Humidity
00:00 +23°C° 0 mm 2 mps 720 mmHg 70%
01:00 +21°C° 0 mm 2 mps 720 mmHg 71%
02:00 +21°C° 0 mm 2 mps 720 mmHg 73%
03:00 +21°C° 0 mm 2 mps 720 mmHg 74%
04:00 +21°C° 0 mm 2 mps 720 mmHg 74%
05:00 +21°C° 0 mm 2 mps 720 mmHg 74%
06:00 +22°C° 0 mm 1 mps 720 mmHg 75%
07:00 +24°C° 0 mm 1 mps 721 mmHg 68%
08:00 +27°C° 0 mm 1 mps 721 mmHg 61%
09:00 +27°C° 0 mm 0 mps 721 mmHg 55%
10:00 +30°C° 0 mm 1 mps 721 mmHg 50%
11:00 +31°C° 0 mm 1 mps 721 mmHg 46%
12:00 +34°C° 0 mm 2 mps 721 mmHg 42%
13:00 +34°C° 0 mm 2 mps 721 mmHg 40%
14:00 +34°C° 0 mm 2 mps 720 mmHg 38%
15:00 +35°C° 0 mm 2 mps 720 mmHg 36%
16:00 +33°C° 0 mm 1 mps 720 mmHg 41%
17:00 +33°C° 0 mm 1 mps 720 mmHg 45%
18:00 +33°C° 0 mm 1 mps 720 mmHg 49%
19:00 +30°C° 0 mm 1 mps 720 mmHg 54%
20:00 +28°C° 0 mm 2 mps 720 mmHg 59%
21:00 +25°C° 0 mm 2 mps 720 mmHg 63%
22:00 +25°C° 0 mm 2 mps 720 mmHg 65%
23:00 +24°C° 0 mm 2 mps 720 mmHg 67%

Day after tomorrow, 3 August, Tuesday

Time Temperature Precipitation Wind Pressure Humidity
00:00 +23°C° 0 mm 2 mps 720 mmHg 69%
01:00 +23°C° 0 mm 2 mps 720 mmHg 70%
02:00 +21°C° 0 mm 2 mps 720 mmHg 70%
03:00 +21°C° 0 mm 2 mps 720 mmHg 71%
04:00 +21°C° 0 mm 2 mps 721 mmHg 71%
05:00 +21°C° 0 mm 2 mps 721 mmHg 71%
06:00 +21°C° 0 mm 2 mps 721 mmHg 71%
07:00 +25°C° 0 mm 2 mps 721 mmHg 64%
08:00 +27°C° 0 mm 2 mps 722 mmHg 57%
09:00 +30°C° 0 mm 2 mps 722 mmHg 50%
10:00 +31°C° 0 mm 2 mps 722 mmHg 46%
11:00 +32°C° 0 mm 2 mps 721 mmHg 43%
12:00 +34°C° 0 mm 2 mps 721 mmHg 39%
13:00 +35°C° 0 mm 2 mps 721 mmHg 37%
14:00 +35°C° 0 mm 1 mps 721 mmHg 35%
15:00 +35°C° 0 mm 1 mps 721 mmHg 32%
16:00 +35°C° 0 mm 1 mps 721 mmHg 37%
17:00 +34°C° 0 mm 1 mps 721 mmHg 41%
18:00 +33°C° 0 mm 1 mps 721 mmHg 45%
19:00 +31°C° 0 mm 2 mps 721 mmHg 48%
20:00 +29°C° 0 mm 2 mps 721 mmHg 51%
21:00 +27°C° 0 mm 3 mps 721 mmHg 53%
22:00 +26°C° 0 mm 3 mps 721 mmHg 54%
23:00 +26°C° 0 mm 3 mps 722 mmHg 55%

4 August, Wednesday

Time Temperature Precipitation Wind Pressure Humidity
00:00 +25°C° 0 mm 3 mps 722 mmHg 56%
01:00 +24°C° 0 mm 3 mps 722 mmHg 57%
02:00 +24°C° 0 mm 3 mps 722 mmHg 58%
03:00 +22°C° 0 mm 3 mps 722 mmHg 59%
04:00 +23°C° 0 mm 2 mps 722 mmHg 61%
05:00 +21°C° 0 mm 2 mps 723 mmHg 62%
06:00 +21°C° 0 mm 2 mps 723 mmHg 63%
07:00 +25°C° 0 mm 1 mps 723 mmHg 57%
08:00 +27°C° 0 mm 1 mps 723 mmHg 52%
09:00 +30°C° 0 mm 1 mps 723 mmHg 46%
10:00 +31°C° 0 mm 1 mps 723 mmHg 43%
11:00 +32°C° 0 mm 2 mps 723 mmHg 39%
12:00 +34°C° 0 mm 2 mps 723 mmHg 36%
13:00 +35°C° 0 mm 2 mps 723 mmHg 35%
14:00 +35°C° 0 mm 2 mps 723 mmHg 34%
15:00 +36°C° 0 mm 2 mps 723 mmHg 34%
16:00 +35°C° 0 mm 2 mps 723 mmHg 38%
17:00 +33°C° 0 mm 1 mps 723 mmHg 42%
18:00 +32°C° 0 mm 1 mps 722 mmHg 46%
19:00 +30°C° 0 mm 1 mps 723 mmHg 49%
20:00 +29°C° 0 mm 1 mps 723 mmHg 52%
21:00 +27°C° 0 mm 1 mps 723 mmHg 55%
22:00 +26°C° 0 mm 1 mps 723 mmHg 59%
23:00 +25°C° 0 mm 1 mps 723 mmHg 64%

5 August, Thursday

Time Temperature Precipitation Wind Pressure Humidity
00:00 +23°C° 0 mm 1 mps 723 mmHg 68%
01:00 +23°C° 0 mm 1 mps 723 mmHg 70%
02:00 +22°C° 0 mm 1 mps 723 mmHg 73%
03:00 +22°C° 0 mm 1 mps 723 mmHg 75%
04:00 +22°C° 0 mm 1 mps 723 mmHg 77%
05:00 +22°C° 0 mm 1 mps 723 mmHg 79%
06:00 +21°C° 0 mm 1 mps 723 mmHg 81%
07:00 +23°C° 0.1 mm 2 mps 723 mmHg 75%
08:00 +25°C° 0.1 mm 3 mps 724 mmHg 69%
09:00 +27°C° 0.1 mm 4 mps 724 mmHg 63%
10:00 +28°C° 0 mm 4 mps 724 mmHg 58%
11:00 +30°C° 0 mm 4 mps 723 mmHg 54%
12:00 +32°C° 0 mm 4 mps 723 mmHg 49%
13:00 +32°C° 0 mm 4 mps 723 mmHg 48%
14:00 +33°C° 0 mm 4 mps 723 mmHg 46%
15:00 +33°C° 0 mm 5 mps 722 mmHg 45%
16:00 +33°C° 0 mm 4 mps 722 mmHg 48%
17:00 +32°C° 0 mm 4 mps 722 mmHg 50%
18:00 +30°C° 0 mm 4 mps 722 mmHg 53%
19:00 +29°C° 0 mm 3 mps 721 mmHg 58%
20:00 +27°C° 0 mm 3 mps 721 mmHg 63%
21:00 +25°C° 0 mm 2 mps 721 mmHg 68%
22:00 +24°C° 0 mm 2 mps 721 mmHg 70%
23:00 +24°C° 0 mm 2 mps 720 mmHg 72%

6 August, Friday

Time Temperature Precipitation Wind Pressure Humidity
00:00 +23°C° 0 mm 2 mps 720 mmHg 74%
01:00 +23°C° 0 mm 2 mps 720 mmHg 75%
02:00 +23°C° 0 mm 2 mps 719 mmHg 76%
03:00 +21°C° 0 mm 2 mps 719 mmHg 78%
04:00 +21°C° 0 mm 2 mps 719 mmHg 78%
05:00 +21°C° 0 mm 2 mps 719 mmHg 78%
06:00 +21°C° 0 mm 2 mps 719 mmHg 78%
07:00 +24°C° 0 mm 3 mps 719 mmHg 69%
08:00 +27°C° 0 mm 4 mps 719 mmHg 61%
09:00 +29°C° 0 mm 5 mps 719 mmHg 53%
10:00 +32°C° 0 mm 5 mps 719 mmHg 49%
11:00 +33°C° 0 mm 6 mps 719 mmHg 44%
12:00 +35°C° 0 mm 7 mps 718 mmHg 39%
13:00 +35°C° 0 mm 7 mps 718 mmHg 38%
14:00 +35°C° 0 mm 7 mps 718 mmHg 37%
15:00 +36°C° 0 mm 7 mps 717 mmHg 36%
16:00 +35°C° 0 mm 7 mps 717 mmHg 40%
17:00 +34°C° 0 mm 7 mps 717 mmHg 43%
18:00 +33°C° 0 mm 6 mps 717 mmHg 47%
19:00 +29°C° 0.1 mm 5 mps 717 mmHg 53%
20:00 +27°C° 0.1 mm 4 mps 718 mmHg 60%
21:00 +25°C° 0.1 mm 3 mps 718 mmHg 67%
22:00 +24°C° 0 mm 3 mps 718 mmHg 68%
23:00 +24°C° 0 mm 3 mps 717 mmHg 70%
Show more